KK4OHF Weather Reports


time (UTC)temp
C
wind
direction
speed
KPH
gust
KPH
rain 1hr
cm
rain 24hr
cm
rain mn
cm
humidity
%
barometer
mb
20260901024005 24 16 0.0 0.0 0.00 0.00 0.00 85 1019.1
20260901023504 25 16 0.0 0.0 0.00 0.00 0.00 84 1019.1
20260901023005 25 16 0.0 0.0 0.00 0.00 0.00 84 1018.5
20260901022505 25 16 0.0 0.0 0.00 0.00 0.00 84 1018.5
20260901022005 25 16 0.0 0.0 0.00 0.00 0.00 84 1018.5
20260901021506 25 16 0.0 0.0 0.00 0.00 0.00 84 1018.5
20260901021005 25 16 0.0 0.0 0.00 0.00 0.00 83 1018.5
20260901015504 25 16 0.0 0.0 0.00 0.00 0.00 82 1018.5
20260901015005 26 16 0.0 0.0 0.00 0.00 0.00 82 1018.5
20260901014505 26 16 0.0 0.0 0.00 0.00 0.00 82 1018.5
20260901014005 26 16 0.0 0.0 0.00 0.00 0.00 82 1018.5
20260901013505 26 16 0.0 0.0 0.00 0.00 0.00 82 1018.5
20260901013005 26 16 0.0 0.0 0.00 0.00 0.00 82 1018.4
20260901012504 26 16 0.0 1.6 0.00 0.00 0.00 81 1018.4
20260901012006 26 16 0.0 3.2 0.00 0.00 0.00 81 1018.2
20260901011505 27 16 0.0 0.0 0.00 0.00 0.00 81 1018.2
20260901011005 27 16 0.0 0.0 0.00 0.00 0.00 80 1018.2
20260901010505 27 16 0.0 0.0 0.00 0.00 0.00 79 1018.2
20260901010005 27 16 0.0 0.0 0.00 0.00 0.00 79 1017.9
20260901005005 28 16 0.0 0.0 0.00 0.00 0.00 77 1017.9
20260901004505 28 16 0.0 0.0 0.00 0.00 0.00 77 1017.9
20260901004005 28 16 0.0 0.0 0.00 0.00 0.00 76 1017.9
20260901003505 28 16 0.0 0.0 0.00 0.00 0.00 76 1017.9
20260901003005 28 16 0.0 0.0 0.00 0.00 0.00 75 1017.9
20260901002505 28 16 0.0 0.0 0.00 0.00 0.00 73 1017.9
20260901002005 29 16 0.0 0.0 0.00 0.00 0.00 72 1017.9
20260901001505 29 16 0.0 0.0 0.00 0.00 0.00 73 1017.9
20260901000504 30 16 0.0 0.0 0.00 0.00 0.00 71 1017.9
20260901000005 30 16 0.0 0.0 0.00 0.00 0.00 70 1017.9
20260831235505 30 16 0.0 0.0 0.00 0.00 0.00 69 1017.9
20260831235005 30 16 0.0 0.0 0.00 0.00 0.00 68 1017.9
20260831234505 31 16 0.0 0.0 0.00 0.00 0.00 67 1017.9
20260831233506 31 16 0.0 0.0 0.00 0.00 0.00 65 1017.9
20260831232505 31 16 0.0 0.0 0.00 0.00 0.00 59 1017.9
20260831232005 31 16 0.0 0.0 0.00 0.00 0.00 59 1017.9
20260831231505 31 16 0.0 0.0 0.00 0.00 0.00 58 1017.9
20260831231005 31 16 0.0 1.6 0.00 0.00 0.00 58 1017.9
20260831230505 31 16 1.6 3.2 0.00 0.00 0.00 57 1017.9
20260831230006 31 16 1.6 3.2 0.00 0.00 0.00 56 1017.9
20260831225504 31 16 0.0 1.6 0.00 0.00 0.00 56 1017.9
20260831225005 31 16 1.6 3.2 0.00 0.00 0.00 55 1017.9
20260831224006 31 16 1.6 3.2 0.00 0.00 0.00 54 1018.1
20260831222006 31 36 1.6 4.8 0.00 0.00 0.00 54 1018.5
20260831221504 31 5 3.2 4.8 0.00 0.00 0.00 54 1018.5
20260831221005 31 15 1.6 4.8 0.00 0.00 0.00 55 1018.5
20260831220505 32 15 1.6 3.2 0.00 0.00 0.00 55 1018.5
20260831220005 32 15 1.6 4.8 0.00 0.00 0.00 54 1018.5
20260831215505 32 80 1.6 3.2 0.00 0.00 0.00 54 1018.5
20260831215005 32 80 1.6 3.2 0.00 0.00 0.00 52 1018.5
20260831214505 32 13 1.6 3.2 0.00 0.00 0.00 53 1018.5
20260831214004 32 13 1.6 4.8 0.00 0.00 0.00 52 1018.5
20260831213006 32 23 1.6 4.8 0.00 0.00 0.00 53 1018.5
20260831212505 32 142 0.0 3.2 0.00 0.00 0.00 53 1018.5
20260831212006 32 11 0.0 3.2 0.00 0.00 0.00 52 1018.6
20260831211505 32 11 1.6 4.8 0.00 0.00 0.00 53 1018.6
20260831210506 32 17 1.6 4.8 0.00 0.00 0.00 51 1018.5
20260831210005 32 8 3.2 4.8 0.00 0.00 0.00 53 1018.7
20260831205504 32 103 1.6 3.2 0.00 0.00 0.00 53 1018.7
20260831205005 32 73 1.6 3.2 0.00 0.00 0.00 52 1018.7
20260831204005 32 11 1.6 4.8 0.00 0.00 0.00 52 1018.9
20260831203005 32 5 1.6 3.2 0.00 0.00 0.00 53 1019.0
20260831202505 32 5 1.6 3.2 0.00 0.00 0.00 53 1019.0
20260831202006 32 351 1.6 4.8 0.00 0.00 0.00 51 1019.0
20260831201505 32 18 1.6 4.8 0.00 0.00 0.00 53 1019.0
20260831201005 33 27 3.2 8.0 0.00 0.00 0.00 52 1019.0
20260831200506 33 335 1.6 3.2 0.00 0.00 0.00 52 1019.0
20260831195506 33 104 3.2 4.8 0.00 0.00 0.00 49 1019.6
20260831195005 33 71 1.6 3.2 0.00 0.00 0.00 48 1019.6
20260831194006 32 105 1.6 4.8 0.00 0.00 0.00 53 1019.6
20260831193505 32 29 1.6 4.8 0.00 0.00 0.00 51 1019.6
20260831193004 33 22 3.2 4.8 0.00 0.00 0.00 53 1019.6
20260831192505 32 254 3.2 4.8 0.00 0.00 0.00 53 1019.6
20260831192006 32 306 1.6 4.8 0.00 0.00 0.00 54 1019.6
20260831191504 31 314 3.2 8.0 0.00 0.00 0.00 55 1019.6
20260831190504 32 9 3.2 4.8 0.00 0.00 0.00 54 1019.6
20260831190005 32 344 3.2 4.8 0.00 0.00 0.00 54 1020.0
20260831185506 33 316 1.6 4.8 0.00 0.00 0.00 53 1020.0
20260831184005 31 9 3.2 4.8 0.00 0.00 0.00 53 1020.0
20260831183505 31 310 4.8 8.0 0.00 0.00 0.00 55 1020.0
20260831183006 31 1 1.6 4.8 0.00 0.00 0.00 55 1020.0
20260831182505 32 356 1.6 4.8 0.00 0.00 0.00 57 1020.0
20260831182005 32 24 4.8 8.0 0.00 0.00 0.00 55 1020.4
20260831181505 31 21 4.8 8.0 0.00 0.00 0.00 56 1020.4
20260831181004 31 5 1.6 4.8 0.00 0.00 0.00 58 1020.4
20260831180505 31 7 3.2 4.8 0.00 0.00 0.00 56 1020.4
20260831175506 32 344 1.6 3.2 0.00 0.00 0.00 56 1020.4
20260831175006 31 242 3.2 4.8 0.00 0.00 0.00 54 1020.4
20260831174505 31 26 3.2 4.8 0.00 0.00 0.00 57 1020.5
20260831174006 31 11 3.2 4.8 0.00 0.00 0.00 58 1020.6
20260831173504 32 10 1.6 4.8 0.00 0.00 0.00 57 1020.6
20260831173005 31 58 1.6 4.8 0.00 0.00 0.00 56 1020.6
20260831172505 31 336 3.2 4.8 0.00 0.00 0.00 61 1020.6
20260831172005 31 26 1.6 4.8 0.00 0.00 0.00 59 1021.0
20260831171505 31 24 3.2 4.8 0.00 0.00 0.00 60 1021.0
20260831171005 32 30 4.8 12.9 0.00 0.00 0.00 58 1021.0
20260831170504 31 122 1.6 4.8 0.00 0.00 0.00 62 1021.0
20260831165005 31 7 4.8 8.0 0.00 0.00 0.00 61 1021.1
20260831164505 31 94 1.6 4.8 0.00 0.00 0.00 65 1021.1
20260831164005 31 9 3.2 8.0 0.00 0.00 0.00 61 1021.1
20260831163505 31 167 1.6 3.2 0.00 0.00 0.00 61 1021.1
20260831163005 31 32 1.6 4.8 0.00 0.00 0.00 66 1021.1
20260831162505 30 130 1.6 3.2 0.00 0.00 0.00 67 1021.1
20260831162005 30 26 1.6 3.2 0.00 0.00 0.00 65 1021.1
20260831161504 31 26 1.6 3.2 0.00 0.00 0.00 63 1021.1
20260831160505 31 238 1.6 3.2 0.00 0.00 0.00 64 1021.5
20260831155505 30 245 1.6 4.8 0.00 0.00 0.00 67 1021.5
20260831155005 31 172 1.6 4.8 0.00 0.00 0.00 65 1021.5
20260831154505 31 141 3.2 4.8 0.00 0.00 0.00 66 1021.5
20260831153504 31 262 1.6 4.8 0.00 0.00 0.00 68 1021.5
20260831153005 30 242 3.2 4.8 0.00 0.00 0.00 70 1021.5
20260831152505 30 25 1.6 4.8 0.00 0.00 0.00 71 1021.5
20260831152005 30 70 1.6 3.2 0.00 0.00 0.00 67 1021.5
20260831151005 29 25 1.6 3.2 0.00 0.00 0.00 72 1021.5
20260831150505 30 355 1.6 3.2 0.00 0.00 0.00 73 1021.5
20260831150005 28 34 1.6 3.2 0.00 0.00 0.00 75 1021.2
20260831145504 28 88 1.6 4.8 0.00 0.00 0.00 74 1021.2
20260831145005 28 296 1.6 4.8 0.00 0.00 0.00 75 1021.2
20260831144506 29 98 0.0 3.2 0.00 0.00 0.00 74 1021.2
20260831143504 28 137 1.6 4.8 0.00 0.00 0.00 77 1021.2
20260831143006 28 236 1.6 3.2 0.00 0.00 0.00 80 1021.2
20260831142005 27 127 1.6 4.8 0.00 0.00 0.00 78 1021.2
20260831141505 27 146 1.6 3.2 0.00 0.00 0.00 80 1021.2
20260831141004 27 126 0.0 3.2 0.00 0.00 0.00 81 1021.2
20260831140505 26 143 1.6 3.2 0.00 0.00 0.00 83 1021.2
20260831140006 26 118 1.6 4.8 0.00 0.00 0.00 85 1020.6
20260831135505 26 126 1.6 4.8 0.00 0.00 0.00 87 1020.6
20260831134505 24 212 0.0 1.6 0.00 0.00 0.00 88 1020.6
20260831134005 23 173 0.0 1.6 0.00 0.00 0.00 87 1020.6
20260831133505 23 173 0.0 1.6 0.00 0.00 0.00 87 1020.6
20260831133006 22 173 0.0 3.2 0.00 0.00 0.00 88 1020.6
20260831132505 22 173 0.0 3.2 0.00 0.00 0.00 88 1020.6
20260831131506 22 189 0.0 1.6 0.00 0.00 0.00 88 1020.6
20260831131005 22 127 0.0 3.2 0.00 0.00 0.00 88 1020.6
20260831130006 22 139 0.0 3.2 0.00 0.00 0.00 88 1020.6
20260831125505 22 139 1.6 3.2 0.00 0.00 0.00 88 1020.6
20260831125006 22 139 0.0 1.6 0.00 0.00 0.00 88 1020.6
20260831124506 21 139 1.6 3.2 0.00 0.00 0.00 88 1020.6
20260831124005 21 139 1.6 1.6 0.00 0.00 0.00 89 1020.6
20260831123505 21 139 0.0 1.6 0.00 0.00 0.00 89 1020.6
20260831123005 21 139 0.0 0.0 0.00 0.00 0.00 89 1020.6
20260831122505 21 139 0.0 0.0 0.00 0.00 0.00 89 1020.6
20260831122004 21 139 0.0 1.6 0.00 0.00 0.00 89 1020.6
20260831121505 21 139 0.0 1.6 0.00 0.00 0.00 89 1020.6
20260831121005 20 139 0.0 0.0 0.00 0.00 0.00 89 1020.6
20260831120505 20 139 0.0 0.0 0.00 0.00 0.00 89 1020.6
20260831120005 20 139 0.0 0.0 0.00 0.00 0.00 89 1020.5
20260831115506 20 139 0.0 0.0 0.00 0.00 0.00 89 1020.5
20260831115004 20 139 0.0 0.0 0.00 0.00 0.00 89 1020.5
20260831114505 20 139 0.0 0.0 0.00 0.00 0.00 89 1020.4
20260831114005 20 139 0.0 0.0 0.00 0.00 0.00 89 1020.4
20260831113506 20 139 0.0 0.0 0.00 0.00 0.00 89 1020.4
20260831113005 20 139 0.0 0.0 0.00 0.00 0.00 89 1020.3
20260831112505 20 139 0.0 0.0 0.00 0.00 0.00 89 1020.3
20260831112005 20 139 0.0 0.0 0.00 0.00 0.00 89 1020.1
20260831111505 20 139 0.0 0.0 0.00 0.00 0.00 89 1020.1
20260831111005 20 139 0.0 0.0 0.00 0.00 0.00 89 1020.1
20260831110505 20 139 0.0 0.0 0.00 0.00 0.00 89 1020.1
20260831110006 20 139 0.0 0.0 0.00 0.00 0.00 89 1020.0
20260831105505 20 139 0.0 0.0 0.00 0.00 0.00 89 1020.0
20260831105005 20 139 0.0 0.0 0.00 0.00 0.00 89 1020.0
20260831104505 20 139 0.0 0.0 0.00 0.00 0.00 89 1020.0
20260831104005 20 139 0.0 0.0 0.00 0.00 0.00 89 1019.6
20260831103505 20 139 0.0 1.6 0.00 0.00 0.00 89 1019.6
20260831103005 21 139 0.0 0.0 0.00 0.00 0.00 89 1019.6
20260831102505 21 139 0.0 0.0 0.00 0.00 0.00 89 1019.6
20260831102006 21 139 0.0 0.0 0.00 0.00 0.00 89 1019.6
20260831101505 21 139 0.0 1.6 0.00 0.00 0.00 89 1019.6
20260831100505 21 139 0.0 1.6 0.00 0.00 0.00 89 1019.6
20260831100005 21 139 0.0 0.0 0.00 0.00 0.00 89 1019.6
20260831095004 21 139 0.0 0.0 0.00 0.00 0.00 89 1019.5
20260831094505 21 139 0.0 0.0 0.00 0.00 0.00 89 1019.5
20260831094005 21 139 0.0 0.0 0.00 0.00 0.00 90 1019.5
20260831093505 21 139 0.0 0.0 0.00 0.00 0.00 89 1019.5
20260831091505 21 139 0.0 1.6 0.00 0.00 0.00 89 1019.5
20260831091005 21 139 0.0 1.6 0.00 0.00 0.00 89 1019.5
20260831090504 21 139 0.0 1.6 0.00 0.00 0.00 90 1019.5
20260831090006 21 139 0.0 0.0 0.00 0.00 0.00 90 1019.5
20260831085504 21 139 0.0 1.6 0.00 0.00 0.00 90 1019.5
20260831085006 21 139 0.0 1.6 0.00 0.00 0.00 90 1019.5
20260831084505 21 139 0.0 1.6 0.00 0.00 0.00 90 1019.5
20260831084005 21 139 0.0 0.0 0.00 0.00 0.00 90 1019.5
20260831083505 21 139 0.0 0.0 0.00 0.00 0.00 90 1019.5
20260831083006 21 139 0.0 0.0 0.00 0.00 0.00 90 1019.1
20260831082505 21 139 0.0 1.6 0.00 0.00 0.00 89 1019.1
20260831081505 21 139 0.0 0.0 0.00 0.00 0.00 89 1019.1
20260831081004 21 139 0.0 0.0 0.00 0.00 0.00 89 1019.1
20260831080505 21 139 0.0 0.0 0.00 0.00 0.00 89 1019.1
20260831080005 21 139 0.0 1.6 0.00 0.00 0.00 89 1019.0
20260831075505 21 139 0.0 1.6 0.00 0.00 0.00 89 1019.0
20260831075005 21 139 0.0 1.6 0.00 0.00 0.00 89 1019.0
20260831074506 21 139 0.0 1.6 0.00 0.00 0.00 89 1019.0
20260831074004 21 139 0.0 0.0 0.00 0.00 0.00 89 1019.0
20260831073505 21 139 0.0 0.0 0.00 0.00 0.00 89 1019.0
20260831073005 21 139 0.0 0.0 0.00 0.00 0.00 89 1019.0
20260831072505 21 139 0.0 0.0 0.00 0.00 0.00 89 1019.0
20260831072005 21 139 0.0 0.0 0.00 0.00 0.00 89 1019.0
20260831071505 21 139 0.0 0.0 0.00 0.00 0.00 89 1019.0
20260831071006 21 139 0.0 0.0 0.00 0.00 0.00 89 1019.0
20260831070505 22 139 0.0 0.0 0.00 0.00 0.00 89 1019.0
20260831070005 22 139 0.0 0.0 0.00 0.00 0.00 89 1018.9
20260831065505 22 139 0.0 0.0 0.00 0.00 0.00 89 1018.9
20260831065005 22 139 0.0 0.0 0.00 0.00 0.00 89 1019.0
20260831064005 22 139 0.0 1.6 0.00 0.00 0.00 89 1019.1
20260831063505 22 139 0.0 0.0 0.00 0.00 0.00 89 1019.1
20260831063005 22 139 0.0 0.0 0.00 0.00 0.00 89 1019.2
20260831062505 22 139 0.0 0.0 0.00 0.00 0.00 89 1019.2
20260831062005 22 139 0.0 0.0 0.00 0.00 0.00 89 1019.1
20260831061505 22 139 0.0 0.0 0.00 0.00 0.00 89 1019.1
20260831061005 22 139 0.0 0.0 0.00 0.00 0.00 89 1019.1
20260831055004 22 139 0.0 0.0 0.00 0.00 0.00 89 1019.4
20260831054505 22 139 0.0 0.0 0.00 0.00 0.00 89 1019.4
20260831054005 22 139 0.0 0.0 0.00 0.00 0.00 89 1019.4
20260831053005 22 139 0.0 0.0 0.00 0.00 0.00 89 1019.2
20260831052005 22 139 0.0 0.0 0.00 0.00 0.00 89 1019.2
20260831051504 22 139 0.0 0.0 0.00 0.00 0.00 89 1019.2
20260831051005 22 139 0.0 0.0 0.00 0.00 0.00 89 1019.4
20260831050505 22 139 0.0 0.0 0.00 0.00 0.00 89 1019.4
20260831050005 23 139 0.0 0.0 0.00 0.00 0.00 89 1019.5
20260831045505 23 139 0.0 0.0 0.00 0.00 0.00 89 1019.5
20260831045005 23 139 0.0 0.0 0.00 0.00 0.00 89 1019.5
20260831044505 23 139 0.0 0.0 0.00 0.00 0.00 88 1019.5
20260831044005 23 139 0.0 1.6 0.00 0.00 0.00 88 1019.5
20260831043005 23 139 0.0 0.0 0.00 0.00 0.00 88 1019.5
20260831042506 23 139 0.0 0.0 0.00 0.00 0.00 88 1019.5
20260831042005 23 139 0.0 0.0 0.00 0.00 0.00 88 1019.5
20260831041505 23 139 0.0 0.0 0.00 0.00 0.00 88 1019.5
20260831040506 23 139 0.0 0.0 0.00 0.00 0.00 88 1019.5
20260831040005 23 139 0.0 0.0 0.00 0.00 0.00 88 1019.4
20260831035504 23 139 0.0 1.6 0.00 0.00 0.00 88 1019.4
20260831035005 23 139 0.0 0.0 0.00 0.00 0.00 88 1019.4
20260831034505 23 139 0.0 0.0 0.00 0.00 0.00 88 1019.4
20260831034005 23 139 0.0 1.6 0.00 0.00 0.00 87 1019.4
20260831033505 23 139 0.0 0.0 0.00 0.00 0.00 87 1019.4
20260831033005 24 139 0.0 0.0 0.00 0.00 0.00 87 1019.5
20260831032505 24 139 0.0 0.0 0.00 0.00 0.00 87 1019.5
20260831032006 24 139 0.0 0.0 0.00 0.00 0.00 87 1019.5
20260831031505 24 139 0.0 0.0 0.00 0.00 0.00 87 1019.5
20260831031005 24 139 0.0 0.0 0.00 0.00 0.00 87 1019.5
20260831030505 24 139 0.0 0.0 0.00 0.00 0.00 87 1019.5
20260831030004 24 139 0.0 0.0 0.00 0.00 0.00 87 1019.5
20260831025505 25 139 0.0 0.0 0.00 0.00 0.00 86 1019.5
20260831024504 25 139 0.0 0.0 0.00 0.00 0.00 86 1019.5